Theta_e
347 347 342 346 347 346 343 343 344 344 343 342 345 344 343 344 343 344 345 343 343 344 343 342 340 334 325 327 327 330 330 328 328 330 329 328 330 330 329 329 329 330 330
346 347 347 347 345 346 345 345 344 342 342 342 339 343 345 344 345 344 346 345 344 344 343 342 342 339 335 327 324 324 325 326 326 327 327 329 330 329 329 330 330 331 331
346 348 348 347 347 347 348 346 345 345 342 342 343 340 344 344 345 345 345 345 345 345 344 344 343 342 338 335 331 326 324 324 324 325 326 328 330 331 331 332 332 332 331
347 348 349 348 347 347 347 347 346 346 345 344 344 344 343 344 345 344 343 346 346 344 345 344 343 344 342 337 335 334 331 330 325 325 325 326 327 329 331 333 333 333 335
350 347 349 350 350 348 348 349 349 347 346 343 345 344 343 343 343 345 344 344 343 345 344 344 344 344 344 343 338 337 335 334 335 332 326 325 326 327 327 327 329 332 336
351 349 351 350 348 349 348 349 349 349 347 346 346 345 344 343 343 344 345 345 345 344 345 345 347 346 344 345 344 339 338 336 335 335 335 333 328 326 327 328 327 326 327
339 342 346 349 348 347 350 352 351 351 351 348 348 346 346 343 343 343 343 345 345 345 345 347 348 346 344 344 344 339 337 338 338 337 337 337 337 335 329 327 328 328 327
340 340 344 347 341 341 345 348 349 350 350 349 348 347 347 347 344 344 343 345 350 348 346 347 345 347 346 344 346 345 344 340 340 340 341 340 339 339 337 332 330 329 328
346 347 345 343 344 343 346 348 346 347 348 348 349 348 348 348 345 342 343 344 346 349 347 347 346 347 347 347 345 347 345 345 344 341 340 340 341 340 339 338 336 333 331
344 347 348 351 348 345 345 347 344 347 346 347 348 349 349 347 348 345 345 344 345 347 348 348 348 349 350 348 347 346 345 346 345 345 344 342 340 339 338 339 340 340 338
350 349 350 348 340 336 345 346 345 345 347 345 348 348 349 348 347 349 349 347 344 347 350 350 351 349 349 348 348 347 346 346 345 346 346 344 343 342 341 339 337 336 338
346 343 340 336 330 338 343 346 345 346 345 347 349 349 348 349 348 347 347 346 347 346 347 349 348 350 349 348 349 348 347 347 346 347 347 346 347 344 343 341 337 335 335
343 341 334 324 335 338 341 342 342 345 345 349 348 348 347 348 348 348 348 346 346 346 346 345 347 351 350 346 347 349 349 347 349 349 349 347 347 348 345 342 341 339 335
338 331 330 333 336 337 341 343 343 344 345 345 348 348 347 348 349 349 349 347 346 347 348 348 346 345 345 343 344 350 349 349 349 349 348 350 348 349 349 347 341 341 340
334 341 338 329 331 331 334 341 342 341 345 345 344 344 345 345 346 345 346 346 346 348 349 347 345 346 347 345 348 349 348 344 350 349 349 350 350 349 348 348 348 343 341
338 342 342 337 329 328 329 339 343 342 335 338 345 344 344 345 344 342 342 344 345 348 347 346 345 345 346 349 349 347 347 346 347 350 349 349 346 346 346 345 346 346 343
344 342 341 339 332 331 336 335 336 332 327 325 332 343 343 343 343 343 342 343 343 343 343 343 344 345 342 341 345 346 345 345 343 344 341 345 347 348 345 346 344 343 344
345 342 340 337 333 331 336 338 335 330 324 323 327 332 337 338 339 342 343 343 341 342 341 342 344 342 342 343 344 345 345 343 341 344 343 344 348 349 349 349 348 344 343
340 340 339 340 338 335 338 337 336 332 326 323 326 335 336 339 339 339 337 335 335 340 340 341 341 342 343 344 344 344 345 344 345 341 341 342 346 340 349 349 348 347 344
340 337 338 339 338 338 339 339 337 335 331 326 324 331 333 336 335 337 339 340 339 337 337 339 341 340 339 339 340 341 341 341 342 344 345 347 346 347 347 347 349 348 348
340 340 339 338 336 335 339 338 338 336 332 325 325 329 334 333 331 334 337 338 339 339 339 339 337 337 340 340 338 337 339 341 341 344 346 347 346 346 346 349 348 348 347
340 339 338 336 336 338 338 336 334 331 329 328 330 328 329 329 333 333 331 335 338 339 340 341 338 338 337 336 334 336 339 340 339 336 341 343 347 347 346 346 344 347 347
340 338 336 334 331 328 326 324 325 329 328 331 331 329 327 328 329 330 329 329 332 337 336 336 338 339 338 337 339 337 336 339 339 338 336 339 341 342 344 344 347 347 345
330 324 321 324 326 327 328 329 328 327 326 325 324 324 324 324 327 328 328 328 329 331 334 335 337 340 340 339 339 337 336 338 339 341 341 336 335 332 340 344 345 345 343
316 324 324 325 327 329 326 325 325 325 325 324 323 322 322 323 325 326 328 328 328 328 330 333 333 333 335 339 340 338 336 336 338 338 340 340 340 338 333 334 340 342 344
325 326 324 325 324 323 323 322 319 314 312 311 310 311 313 317 320 322 324 325 326 326 327 327 327 328 330 332 332 335 335 334 336 337 335 340 340 340 339 333 336 340 339
Wind_Speed
10 9 7 8 9 8 7 11 11 12 12 13 13 17 16 16 16 17 17 22 20 19 14 14 15 16 16 17 17 16 16 16 15 15 15 17 19 18 15 13 11 9 8
11 13 12 11 9 9 9 10 13 14 14 14 17 18 20 18 21 22 21 17 14 15 16 17 17 18 19 18 19 19 19 18 17 16 16 16 17 17 16 14 12 11 10
12 14 13 12 12 11 10 12 12 14 17 16 17 19 19 21 23 23 25 23 21 19 19 22 21 18 23 23 22 21 21 20 20 19 18 17 16 16 16 15 14 13 11
16 15 15 13 13 13 11 13 13 14 14 17 19 20 21 21 23 23 23 23 23 27 24 24 21 21 20 25 27 26 25 23 22 21 21 20 19 18 17 16 15 14 13
22 19 16 14 11 15 14 14 16 18 15 13 16 19 20 20 22 25 23 24 24 25 27 25 23 24 23 21 27 29 29 28 26 25 24 23 23 21 20 19 18 17 16
15 19 20 12 10 10 14 16 19 20 22 18 20 19 24 19 19 24 27 24 26 28 28 25 24 24 22 21 21 28 30 31 30 30 29 28 26 26 25 23 21 20 20
17 15 12 15 11 9 12 17 19 22 22 22 22 26 25 25 24 23 26 29 30 30 30 27 28 27 25 24 23 22 26 28 31 32 32 32 32 32 30 28 26 24 23
16 15 9 10 13 13 14 15 18 20 24 23 25 26 25 24 26 28 25 29 27 27 29 33 31 29 32 28 27 25 23 26 26 28 30 31 35 35 35 33 31 29 27
12 13 10 6 11 18 18 15 18 19 22 22 26 28 11 16 20 20 26 23 30 27 26 29 30 29 30 31 29 28 27 25 25 27 30 29 30 32 35 36 36 34 32
13 11 9 8 16 21 18 18 22 18 19 23 23 30 34 15 12 11 15 21 20 24 27 25 32 29 30 30 31 28 28 29 28 28 29 28 28 28 30 34 36 37 37
9 11 8 12 18 19 17 18 23 21 22 24 22 26 31 33 26 19 21 16 15 22 22 22 23 27 29 30 29 27 28 30 30 29 30 29 27 28 28 30 31 33 35
8 8 13 18 19 16 18 20 23 23 26 21 17 21 31 30 32 36 33 33 27 19 20 22 22 27 27 26 29 29 32 32 34 31 33 32 31 28 28 29 30 30 31
11 15 18 15 15 16 17 19 24 22 24 19 14 13 21 27 26 24 31 34 30 25 22 22 26 17 16 18 33 38 26 35 33 33 31 35 34 31 29 30 30 30 29
12 13 16 17 16 15 17 19 20 22 22 17 15 10 9 17 24 29 30 14 22 24 25 27 24 25 27 20 28 29 41 32 35 32 31 33 35 36 33 33 33 31 31
11 14 18 20 17 17 14 16 19 23 20 19 16 14 10 9 10 23 20 17 22 21 23 20 18 13 17 18 25 29 29 27 30 41 40 33 32 35 35 34 34 35 34
15 12 13 19 19 19 14 11 16 19 21 22 18 16 14 12 11 11 13 14 18 19 22 24 23 22 22 23 27 31 31 29 27 36 35 33 28 31 30 32 34 37 39
11 14 14 18 19 18 16 13 18 22 21 18 13 16 16 15 14 14 14 14 15 17 22 26 24 24 28 32 26 23 29 33 38 31 35 40 26 27 27 28 29 34 39
11 16 14 17 20 17 18 14 23 25 23 19 14 13 15 16 16 16 14 15 15 16 19 23 21 20 21 15 17 21 20 26 24 27 33 33 28 27 28 27 25 27 32
15 15 14 15 17 18 19 17 25 26 23 20 16 13 12 14 16 18 19 18 14 14 15 17 20 18 18 17 20 20 19 19 24 23 21 29 24 26 25 23 24 24 27
13 14 12 13 15 16 17 19 23 24 25 23 16 15 15 15 15 17 16 16 14 14 14 16 17 18 17 16 18 18 21 19 20 19 23 24 22 26 28 26 23 25 26
13 13 14 16 16 16 15 17 19 25 28 27 18 12 13 15 14 18 19 16 13 14 15 17 19 20 22 20 17 18 20 18 17 17 18 20 21 24 29 26 24 22 24
14 14 15 15 16 15 14 17 22 25 23 22 18 18 19 17 15 16 19 16 14 17 18 18 17 19 22 22 21 21 20 18 19 16 12 15 14 20 26 28 33 27 26
16 17 17 18 20 20 20 20 19 17 17 17 19 23 20 19 21 20 18 18 15 12 14 19 21 20 22 22 23 22 20 20 20 19 19 19 14 17 22 24 29 31 30
16 16 15 11 14 16 18 17 16 18 21 23 24 23 22 24 22 23 23 22 19 18 17 16 16 19 21 22 22 21 21 22 23 23 20 23 13 15 16 19 26 28 25
12 11 12 13 16 14 14 18 20 23 27 29 28 25 20 21 21 21 23 24 26 23 20 21 21 20 20 24 20 21 20 23 25 23 20 23 24 21 15 15 19 22 25
10 10 10 11 13 17 21 26 28 29 28 27 24 24 21 22 26 27 31 32 34 33 34 34 32 28 24 21 21 22 21 20 20 25 20 17 15 17 23 19 16 19 23
Wind_Direction
304 307 283 272 289 278 265 255 256 257 251 245 238 242 241 244 232 232 257 244 243 227 244 246 249 249 233 219 215 213 211 209 207 203 203 198 200 212 218 220 215 211 213
299 302 291 288 285 280 268 258 262 262 266 262 248 246 248 251 250 244 254 252 244 238 244 245 248 246 248 238 225 222 222 219 217 216 211 210 209 206 211 215 217 216 215
291 297 297 284 280 276 272 268 266 263 258 256 251 244 242 238 239 244 247 257 253 257 255 259 255 248 241 244 241 231 226 226 224 223 221 219 218 217 215 216 218 220 218
288 289 298 291 280 279 276 265 266 266 267 260 261 256 250 249 244 236 239 244 260 247 251 256 248 246 243 238 239 239 233 227 229 229 229 225 224 226 226 223 221 221 223
281 286 283 281 286 284 276 268 266 262 263 268 271 259 263 256 248 239 232 240 248 248 255 243 249 244 246 244 240 237 236 236 233 231 232 233 231 230 230 232 230 228 229
282 273 264 275 268 274 281 283 276 271 271 263 259 262 257 261 255 241 233 231 237 249 254 245 248 240 244 245 250 242 237 238 238 237 235 235 236 235 234 233 233 234 233
304 300 265 274 290 293 293 293 285 274 267 264 261 259 267 262 254 250 240 236 236 236 242 242 249 250 249 249 248 243 237 239 242 240 240 239 237 238 238 237 235 235 237
344 347 333 293 294 306 310 303 296 291 280 265 253 256 268 274 256 247 247 242 239 237 238 238 243 251 247 243 243 243 239 237 238 238 239 240 240 239 237 238 238 238 238
358 6 6 345 352 340 332 323 318 304 295 281 254 240 236 244 266 262 243 247 244 243 237 234 242 245 248 248 245 244 245 241 237 237 240 240 239 239 237 237 239 240 240
341 329 329 339 337 332 328 321 326 312 312 287 269 245 240 234 243 269 260 245 247 244 242 244 241 248 250 253 250 245 241 239 243 246 245 243 241 240 239 237 238 240 240
338 338 360 335 327 329 326 333 339 329 316 309 274 248 242 241 235 254 270 260 250 260 248 251 251 254 253 254 248 248 246 243 244 245 247 243 242 243 243 242 240 240 240
41 6 346 338 333 329 339 340 339 340 337 322 290 253 239 240 243 240 251 261 261 259 256 260 253 251 259 264 263 259 261 253 251 250 248 247 246 244 246 243 242 241 239
341 334 330 337 352 353 352 353 356 345 350 344 330 277 246 246 252 261 256 261 268 271 262 255 259 252 257 265 257 254 284 255 254 257 260 250 245 246 246 245 243 242 241
323 340 10 5 359 353 347 352 358 355 354 348 355 346 286 259 256 257 280 260 271 271 271 269 269 275 281 267 262 264 256 266 253 249 252 254 252 248 248 247 247 246 242
32 18 10 3 357 352 347 351 1 8 2 4 3 351 345 330 311 301 256 271 253 249 268 269 280 293 291 267 256 262 264 274 265 247 251 254 258 252 246 247 250 248 246
20 2 356 355 1 1 2 353 360 1 3 8 3 358 357 344 321 304 283 275 271 268 272 280 282 283 276 256 276 277 278 263 268 254 246 246 257 252 250 246 247 247 244
347 346 346 349 356 5 9 2 358 351 346 348 349 2 5 351 333 327 315 292 286 279 277 282 280 294 280 286 280 277 280 264 262 262 255 258 249 260 260 251 248 248 245
321 331 334 351 356 1 355 360 351 352 355 357 351 343 343 345 347 348 330 323 302 292 288 287 288 290 292 299 289 287 275 261 258 258 254 265 260 252 248 253 254 250 248
319 335 333 340 343 357 348 344 346 347 351 353 351 353 2 353 337 335 331 331 328 307 308 290 288 291 303 303 294 289 287 283 266 260 255 253 245 249 258 251 248 250 250
322 330 333 332 334 339 340 334 340 336 343 347 343 337 342 331 332 332 323 322 315 320 316 306 300 299 296 303 290 293 285 284 286 277 252 261 261 255 261 264 249 245 245
333 334 330 335 338 335 335 327 329 333 336 341 347 339 338 333 327 324 322 319 316 305 310 313 311 300 292 293 288 294 292 290 293 274 265 255 265 263 248 252 245 247 239
327 327 330 325 327 333 329 323 324 332 341 344 338 331 326 329 322 316 320 315 316 302 295 293 298 300 306 308 301 292 286 286 291 296 286 271 257 255 251 256 256 261 240
319 320 320 324 319 316 320 327 336 345 346 336 335 333 330 322 322 321 314 313 309 308 311 299 292 291 291 294 303 297 283 275 274 279 288 290 290 288 263 264 260 259 266
322 326 343 14 353 348 345 344 343 334 328 328 326 326 322 314 319 318 315 308 301 296 298 302 299 295 297 292 283 291 288 280 271 272 274 283 284 294 287 278 249 259 259
356 27 38 358 350 351 349 337 330 325 322 321 318 316 318 313 306 304 300 301 299 297 294 290 288 287 284 285 287 285 282 276 273 270 269 279 278 280 273 274 269 247 244
39 36 24 16 351 336 334 336 334 333 330 331 329 327 326 307 298 296 296 296 297 301 301 297 290 284 281 280 280 275 280 279 274 276 277 271 280 276 270 277 271 254 250